Robstown, TX

6:45 AM CST on January 18, 2018 (GMT -0600)
Robstown

Weather History for KRBO - March, 2013

Change the Weather History Date:

Sunday, March 31, 2013

  Actual Average (KCRP) Record (KCRP)
Temperature  
Mean Temperature 78 °F -  
Max Temperature 88 °F 76 °F 93 °F (2012)
Min Temperature 68 °F 59 °F 30 °F (1987)
Cooling Degree Days 13    
Growing Degree Days 28 (Base 50)    
Moisture  
Dew Point 66 °F    
Average Humidity 73    
Maximum Humidity 91    
Minimum Humidity 48    
Precipitation  
Precipitation 0.00 in - - ()
Sea Level Pressure  
Sea Level Pressure 29.90 in    
Wind  
Wind Speed 13 mph (SSE)    
Max Wind Speed 25 mph    
Max Gust Speed 31 mph    
Visibility 10 miles    
Events Thunderstorm    
Averages and records for this station are not official NWS values.
T = Trace of Precipitation, MM = Missing Value Source: NWS Daily Summary

Daily Weather History Graph

Daily Weather History Graph

Search for Another Location

Airport or City:

Trip Planner

Search our weather history database for the weather conditions in past years. The results will help you decide how hot, cold, wet, or windy it might be!

Date:

Astronomy

Mar. 31, 2013 Rise Set
Actual Time 7:21 AM CDT 7:48 PM CDT
Civil Twilight 6:58 AM CDT 8:11 PM CDT
Nautical Twilight 6:30 AM CDT 8:39 PM CDT
Astronomical Twilight 6:03 AM CDT 9:07 PM CDT
Moon No Moon Rise 10:32 AM CDT (3/31)
Length of Visible Light 13h 13m
Length of Day
12h 26m
Waning Gibbous, 77% of the Moon is Illuminated
Mar 31
Waning Gibbous
Apr 2
Last Quarter
Apr 10
New
Apr 18
First Quarter
Apr 25
Full

Hourly Weather History & Observations

Time (CDT) Temp. Heat Index Dew Point Humidity Pressure Visibility Wind Dir Wind Speed Gust Speed Precip Events Conditions
12:15 AM 70.7 °F - 66.2 °F 86% 29.97 in 10.0 mi SSE 13.8 mph - N/A   Clear
12:35 AM 70.3 °F - 66.2 °F 87% 29.96 in 10.0 mi SSE 13.8 mph 17.3 mph N/A   Scattered Clouds
12:55 AM 70.2 °F - 66.2 °F 87% 29.96 in 10.0 mi SSE 12.7 mph - N/A   Mostly Cloudy
1:15 AM 69.8 °F - 66.2 °F 88% 29.95 in 10.0 mi SSE 12.7 mph - N/A   Overcast
1:35 AM 69.6 °F - 66.2 °F 89% 29.94 in 10.0 mi SSE 11.5 mph - N/A   Overcast
1:55 AM 69.4 °F - 66.2 °F 89% 29.94 in 10.0 mi SSE 12.7 mph - N/A   Overcast
2:15 AM 69.3 °F - 66.4 °F 91% 29.94 in 10.0 mi SSE 11.5 mph - N/A   Overcast
2:35 AM 69.3 °F - 66.2 °F 90% 29.94 in 10.0 mi SSE 10.4 mph - N/A   Overcast
2:55 AM 69.1 °F - 66.2 °F 91% 29.93 in 10.0 mi SSE 10.4 mph - N/A   Overcast
3:15 AM 69.4 °F - 66.6 °F 91% 29.93 in 10.0 mi SSE 12.7 mph - N/A   Overcast
3:35 AM 69.3 °F - 66.4 °F 91% 29.92 in 10.0 mi SSE 10.4 mph - N/A   Overcast
3:55 AM 69.1 °F - 66.4 °F 91% 29.92 in 7.0 mi SSE 10.4 mph - N/A   Overcast
4:15 AM 68.9 °F - 66.2 °F 91% 29.90 in 10.0 mi SSE 10.4 mph - N/A   Overcast
4:35 AM 68.9 °F - 66.2 °F 91% 29.91 in 7.0 mi SSE 9.2 mph - N/A   Overcast
4:55 AM 69.1 °F - 66.4 °F 91% 29.91 in 10.0 mi SSE 10.4 mph - N/A   Overcast
5:15 AM 69.8 °F - 66.7 °F 90% 29.91 in 10.0 mi South 9.2 mph - N/A   Overcast
5:35 AM 69.8 °F - 66.6 °F 89% 29.90 in 10.0 mi South 10.4 mph - N/A   Overcast
5:55 AM 70.0 °F - 66.4 °F 88% 29.89 in 10.0 mi South 10.4 mph - N/A   Overcast
6:15 AM 70.5 °F - 66.4 °F 87% 29.91 in 10.0 mi South 10.4 mph - N/A   Overcast
6:35 AM 70.7 °F - 66.2 °F 86% 29.90 in 10.0 mi South 9.2 mph - N/A   Overcast
6:55 AM 70.7 °F - 66.0 °F 85% 29.91 in 10.0 mi South 10.4 mph - N/A   Overcast
7:15 AM 70.7 °F - 65.5 °F 83% 29.91 in 10.0 mi South 16.1 mph - N/A   Overcast
7:35 AM 70.7 °F - 65.5 °F 83% 29.92 in 10.0 mi South 13.8 mph - N/A   Overcast
7:55 AM 71.2 °F - 65.7 °F 82% 29.93 in 10.0 mi South 15.0 mph - N/A   Overcast
8:15 AM 71.6 °F - 65.8 °F 82% 29.93 in 10.0 mi South 11.5 mph - N/A   Overcast
8:35 AM 72.0 °F - 65.8 °F 81% 29.93 in 10.0 mi South 12.7 mph - N/A   Overcast
8:55 AM 72.9 °F - 65.8 °F 79% 29.94 in 10.0 mi South 13.8 mph - N/A   Mostly Cloudy
9:15 AM 74.1 °F - 66.0 °F 76% 29.94 in 10.0 mi South 12.7 mph - N/A   Scattered Clouds
9:35 AM 75.4 °F - 66.2 °F 73% 29.94 in 10.0 mi South 11.5 mph - N/A   Clear
9:55 AM 77.2 °F - 66.4 °F 69% 29.94 in 10.0 mi South 12.7 mph - N/A   Scattered Clouds
10:15 AM 77.0 °F - 66.0 °F 69% 29.94 in 10.0 mi South 12.7 mph 18.4 mph N/A   Scattered Clouds
10:35 AM 77.9 °F - 66.0 °F 67% 29.94 in 10.0 mi South 13.8 mph - N/A   Scattered Clouds
10:55 AM 78.3 °F - 66.2 °F 66% 29.93 in 10.0 mi SSE 10.4 mph - N/A   Clear
11:15 AM 79.2 °F - 65.7 °F 63% 29.92 in 10.0 mi South 11.5 mph 20.7 mph N/A   Clear
11:35 AM 80.2 °F 82.3 °F 66.0 °F 62% 29.92 in 10.0 mi South 12.7 mph 19.6 mph N/A   Clear
11:55 AM 81.5 °F 83.4 °F 65.3 °F 58% 29.92 in 10.0 mi SSE 16.1 mph 19.6 mph N/A   Scattered Clouds
12:15 PM 81.9 °F 83.7 °F 65.3 °F 57% 29.92 in 10.0 mi South 13.8 mph 18.4 mph N/A   Clear
12:35 PM 83.3 °F 85.3 °F 65.7 °F 55% 29.91 in 10.0 mi South 12.7 mph - N/A   Clear
12:55 PM 85.1 °F 86.9 °F 65.3 °F 51% 29.90 in 10.0 mi SSE 11.5 mph 18.4 mph N/A   Clear
1:15 PM 84.9 °F 86.6 °F 64.9 °F 51% 29.90 in 10.0 mi SSE 8.1 mph 16.1 mph N/A   Clear
1:35 PM 86.2 °F 88.2 °F 65.7 °F 50% 29.89 in 10.0 mi South 9.2 mph - N/A   Clear
1:55 PM 86.5 °F 88.1 °F 64.9 °F 48% 29.88 in 10.0 mi South 10.4 mph - N/A   Clear
2:15 PM 87.1 °F 88.9 °F 64.9 °F 48% 29.87 in 10.0 mi SSE 9.2 mph - N/A   Scattered Clouds
2:35 PM 86.2 °F 87.6 °F 64.4 °F 48% 29.87 in 10.0 mi South 10.4 mph - N/A   Scattered Clouds
2:55 PM 87.1 °F 88.9 °F 65.3 °F 48% 29.85 in 10.0 mi SE 6.9 mph - N/A   Scattered Clouds
3:15 PM 88.3 °F 90.9 °F 66.2 °F 48% 29.83 in 10.0 mi SSE 11.5 mph 19.6 mph N/A   Clear
3:35 PM 87.6 °F 90.1 °F 66.6 °F 49% 29.83 in 10.0 mi SE 11.5 mph 18.4 mph N/A   Clear
3:55 PM 88.0 °F 90.7 °F 66.4 °F 49% 29.80 in 10.0 mi SSE 17.3 mph 25.3 mph N/A   Scattered Clouds
4:15 PM 87.3 °F 89.8 °F 66.6 °F 50% 29.78 in 10.0 mi ESE 20.7 mph 27.6 mph N/A   Clear
4:35 PM 86.7 °F 89.3 °F 66.6 °F 51% 29.79 in 10.0 mi SE 21.9 mph 25.3 mph N/A   Clear
4:55 PM 85.1 °F 87.4 °F 66.2 °F 53% 29.79 in 10.0 mi SE 18.4 mph - N/A   Clear
5:15 PM 84.6 °F 86.8 °F 66.2 °F 54% 29.79 in 10.0 mi SE 19.6 mph - N/A   Clear
5:35 PM 83.8 °F 86.0 °F 66.2 °F 55% 29.80 in 10.0 mi SE 18.4 mph 24.2 mph N/A   Clear
5:55 PM 83.3 °F 85.7 °F 66.4 °F 57% 29.81 in 10.0 mi SE 17.3 mph - N/A   Clear
6:15 PM 81.7 °F 84.0 °F 66.4 °F 60% 29.81 in 10.0 mi ESE 17.3 mph - N/A   Clear
6:35 PM 80.6 °F 82.8 °F 66.6 °F 62% 29.82 in 10.0 mi ESE 17.3 mph - N/A   Clear
6:55 PM 79.2 °F - 66.6 °F 65% 29.84 in 10.0 mi ESE 13.8 mph 19.6 mph N/A   Clear
7:15 PM 78.1 °F - 66.6 °F 68% 29.85 in 10.0 mi ESE 15.0 mph - N/A   Clear
7:35 PM 76.8 °F - 66.6 °F 70% 29.85 in 10.0 mi ESE 18.4 mph - N/A   Clear
8:15 PM 75.2 °F - 66.7 °F 75% 29.89 in 10.0 mi East 13.8 mph - N/A   Clear
8:35 PM 74.8 °F - 67.1 °F 77% 29.91 in 10.0 mi East 15.0 mph - N/A   Scattered Clouds
8:55 PM 74.8 °F - 67.1 °F 77% 29.92 in 10.0 mi East 13.8 mph - N/A Thunderstorm Thunderstorm
9:15 PM 74.1 °F - 67.5 °F 80% 29.93 in 10.0 mi East 16.1 mph - N/A Thunderstorm Scattered Clouds
9:35 PM 73.9 °F - 67.5 °F 80% 29.92 in 10.0 mi ESE 21.9 mph - N/A   Mostly Cloudy
9:55 PM 73.6 °F - 67.3 °F 81% 29.89 in 10.0 mi ESE 25.3 mph 31.1 mph N/A   Scattered Clouds
10:15 PM 73.4 °F - 67.5 °F 82% 29.91 in 10.0 mi SE 23.0 mph 29.9 mph N/A   Mostly Cloudy
10:35 PM 73.4 °F - 67.8 °F 83% 29.93 in 10.0 mi SE 15.0 mph 25.3 mph N/A   Mostly Cloudy
11:15 PM 72.5 °F - 67.6 °F 85% 29.90 in 10.0 mi ESE 17.3 mph 26.5 mph N/A   Mostly Cloudy
11:35 PM 72.5 °F - 67.5 °F 84% 29.92 in 10.0 mi ESE 12.7 mph - N/A   Overcast
11:55 PM 72.0 °F - 67.5 °F 86% 29.91 in 10.0 mi ESE 11.5 mph - N/A   Overcast